Flag for Kuwait Weather past 2 weeks in Kuwait City, Kuwait

Now
90 °F

Clear.


Feels Like: 88 °F
Forecast: 79 / 100 °F
Wind: 6 mph from Southeast

Location: Kuwait International Airport

Current Time: Oct 1, 2014 at 8:05:02 PM

Latest Report: Oct 1, 2014 at 7:00 PM


Visibility: 4 mi

Pressure: 29.83 "Hg

Humidity: 31%

Dew point: 55 °F

Location of Kuwait CityLocation

Historic Weather in Kuwait City — Graph

°F

Kuwait City temperature yesterday

Maximum temperature yesterday: 104 °F (at 12:00 PM)
Minimum temperature yesterday: 75 °F (at 3:00 AM)
Average temperature yesterday: 89 °F

Past Weeks' High & Low Weather Summary

 TemperatureHumidityPressure
High113 °F (Sep 21, 3:00 AM)70% (Sep 30, 10:00 PM)29.92 "Hg (Sep 30, 10:00 PM)
Low73 °F (Sep 26, 6:00 AM)8% (Sep 20, 2:00 PM)29.59 "Hg (Sep 16, 7:00 PM)
Average93 °F26%29.76 "Hg
* Reported Sep 16 7:00 PM — Oct 1 7:00 PM, Kuwait City, Weather by CustomWeather, © 2014

Note: Actual official high and low records may vary slightly from our data, if they occured in-between our weather recording intervals... More about our weather records

Advertising

Kuwait City weather history for previous 24 hours

 ConditionsComfort  
Time TempWeatherWind HumidityBarometerVisibility
7:00 PM
Oct 1
90 °FClear.6 mph31%29.83 "Hg4 mi
6:00 PM93 °FClear.7 mph32%29.80 "Hg4 mi
5:00 PM95 °FSunny.9 mph25%29.80 "Hg10 mi
4:00 PM99 °FSunny.10 mph21%29.80 "Hg10 mi
3:00 PM100 °FSunny.12 mph17%29.80 "Hg10 mi
2:00 PM102 °FSunny.7 mph16%29.80 "Hg10 mi
1:30 PM100 °FSunny.7 mph18%29.80 "Hg10 mi
12:00 PM100 °FSunny.6 mph24%29.86 "Hg10 mi
11:00 AM100 °FSunny.3 mph20%29.86 "Hg10 mi
10:00 AM97 °FSunny.5 mph20%29.86 "Hg10 mi
9:00 AM93 °FSunny.3 mph24%29.86 "Hg10 mi
8:00 AM88 °FSunny.3 mph31%29.86 "Hg10 mi
7:00 AM81 °FSunny.5 mph45%29.86 "Hg4 mi
6:00 AM75 °FSunny.5 mph57%29.83 "Hg4 mi
5:00 AM75 °FClear.6 mph61%29.83 "Hg4 mi
4:00 AM75 °FClear.5 mph65%29.80 "Hg10 mi
3:00 AM77 °FClear.5 mph61%29.80 "Hg10 mi
2:00 AM79 °FClear.No wind61%29.80 "Hg10 mi
1:00 AM79 °FClear.No wind65%29.80 "Hg10 mi
12:00 AM79 °FClear.5 mph65%29.80 "Hg10 mi
11:00 PM
Sep 30
81 °FClear.3 mph70%29.83 "Hg10 mi
10:00 PM82 °FClear.5 mph70%29.83 "Hg10 mi
9:00 PM84 °FClear.6 mph55%29.83 "Hg10 mi
8:00 PM88 °FClear.5 mph43%29.83 "Hg10 mi
Weather by CustomWeather, © 2014

See weather overviewHow to use our weather pages